EZY3488 LIRN-LIEO

Flight info

Callsign EZY3488
Flight time 0h 51m
Altitude 37000
Route EDOPA DCT TAGEL DCT POKAV DCT ROXAN DCT ATNET
Aircraft A319/M-SDE3FGHIRWY/LB1

Departure

Time 2026-04-27 17:19
Airport Naples International Airport (LIRN)

Arrival

Time 2026-04-27 18:10
Airport Olbia Costa Smeralda Airport (LIEO)
Time Latitude Longitude Altitude Speed Heading
2026-04-27 17:03 40.88242 14.28806 276 ft 0 kts 328°
2026-04-27 17:12 40.88224 14.28821 277 ft 3 kts 328°
2026-04-27 17:12 40.88205 14.28837 277 ft 3 kts 329°
2026-04-27 17:13 40.88184 14.28840 278 ft 3 kts 17°
2026-04-27 17:13 40.88171 14.28830 279 ft 0 kts 47°
2026-04-27 17:15 40.88190 14.28858 277 ft 12 kts 49°
2026-04-27 17:15 40.88253 14.28961 272 ft 16 kts 51°
2026-04-27 17:15 40.88323 14.29084 266 ft 21 kts 52°
2026-04-27 17:16 40.88409 14.29233 260 ft 25 kts 53°
2026-04-27 17:16 40.88507 14.29403 256 ft 27 kts 52°
2026-04-27 17:16 40.88607 14.29578 253 ft 28 kts 52°
2026-04-27 17:16 40.88698 14.29734 250 ft 24 kts 53°
2026-04-27 17:17 40.88787 14.29894 245 ft 25 kts 57°
2026-04-27 17:17 40.88870 14.30040 239 ft 23 kts 50°
2026-04-27 17:17 40.88927 14.30140 234 ft 9 kts 54°
2026-04-27 17:18 40.89043 14.30134 232 ft 12 kts 330°
2026-04-27 17:18 40.89071 14.30066 234 ft 10 kts 242°
2026-04-27 17:18 40.89062 14.30048 235 ft 0 kts 235°
2026-04-27 17:18 40.89055 14.30035 235 ft 17 kts 235°
2026-04-27 17:19 40.88883 14.29678 249 ft 86 kts 238°
2026-04-27 17:19 40.88514 14.28904 283 ft 139 kts 235°
2026-04-27 17:19 40.88047 14.27933 731 ft 146 kts 238°
2026-04-27 17:19 40.87472 14.27004 1243 ft 153 kts 220°
2026-04-27 17:20 40.86614 14.26467 1842 ft 158 kts 192°
2026-04-27 17:20 40.85518 14.26472 2440 ft 169 kts 174°
2026-04-27 17:20 40.84396 14.26697 2908 ft 182 kts 171°
2026-04-27 17:20 40.83097 14.26973 3423 ft 196 kts 172°
2026-04-27 17:21 40.81746 14.27218 4109 ft 200 kts 173°
2026-04-27 17:21 40.80368 14.27298 4728 ft 208 kts 191°
2026-04-27 17:21 40.79090 14.26330 5172 ft 225 kts 224°
2026-04-27 17:21 40.77990 14.24707 5619 ft 248 kts 230°
2026-04-27 17:22 40.76844 14.22921 6169 ft 266 kts 229°
2026-04-27 17:22 40.75626 14.21111 6881 ft 277 kts 227°
2026-04-27 17:22 40.74309 14.19237 7817 ft 280 kts 227°
2026-04-27 17:22 40.72980 14.17398 8707 ft 284 kts 226°
2026-04-27 17:23 40.71598 14.15514 9621 ft 288 kts 226°
2026-04-27 17:23 40.70209 14.13640 10463 ft 292 kts 226°
2026-04-27 17:23 40.68744 14.11675 11035 ft 308 kts 226°
2026-04-27 17:23 40.67204 14.09615 11562 ft 324 kts 226°
2026-04-27 17:24 40.65615 14.07496 12320 ft 330 kts 226°
2026-04-27 17:24 40.63997 14.05343 13115 ft 334 kts 226°
2026-04-27 17:24 40.62363 14.03169 13891 ft 338 kts 227°
2026-04-27 17:24 40.60714 14.00978 14628 ft 343 kts 227°
2026-04-27 17:25 40.59042 13.98756 15372 ft 346 kts 227°
2026-04-27 17:25 40.57346 13.96504 16104 ft 349 kts 227°
2026-04-27 17:25 40.55622 13.94218 16819 ft 353 kts 227°
2026-04-27 17:25 40.53892 13.91923 17503 ft 356 kts 227°
2026-04-27 17:26 40.52143 13.89607 18183 ft 360 kts 227°
2026-04-27 17:26 40.50383 13.87274 18868 ft 363 kts 227°
2026-04-27 17:26 40.48609 13.84927 19538 ft 366 kts 227°
2026-04-27 17:26 40.46832 13.82580 20186 ft 369 kts 227°
2026-04-27 17:27 40.45020 13.80188 20828 ft 372 kts 227°
2026-04-27 17:27 40.43302 13.77686 21445 ft 373 kts 235°
2026-04-27 17:27 40.41906 13.74835 22063 ft 373 kts 245°
2026-04-27 17:27 40.40877 13.71720 22668 ft 374 kts 252°
2026-04-27 17:28 40.39994 13.68492 23261 ft 377 kts 253°
2026-04-27 17:28 40.39134 13.65255 23814 ft 380 kts 253°
2026-04-27 17:28 40.37362 13.58670 24876 ft 387 kts 252°
2026-04-27 17:29 40.36458 13.55353 25362 ft 391 kts 252°
2026-04-27 17:29 40.35537 13.51985 25855 ft 394 kts 252°
2026-04-27 17:29 40.34614 13.48625 26331 ft 397 kts 252°
2026-04-27 17:29 40.33679 13.45229 26792 ft 400 kts 252°
2026-04-27 17:30 40.32732 13.41797 27253 ft 403 kts 252°
2026-04-27 17:30 40.30889 13.34816 28105 ft 408 kts 258°
2026-04-27 17:30 40.30565 13.31199 28505 ft 408 kts 272°
2026-04-27 17:31 40.30892 13.27522 28917 ft 408 kts 284°
2026-04-27 17:31 40.31784 13.23998 29334 ft 410 kts 291°
2026-04-27 17:31 40.32821 13.20505 29731 ft 412 kts 292°
2026-04-27 17:31 40.33878 13.16992 30106 ft 415 kts 292°
2026-04-27 17:32 40.34926 13.13483 30481 ft 417 kts 292°
2026-04-27 17:32 40.37014 13.06416 31212 ft 421 kts 292°
2026-04-27 17:32 40.38074 13.02795 31561 ft 424 kts 292°
2026-04-27 17:33 40.39122 12.99204 31910 ft 426 kts 292°
2026-04-27 17:33 40.40168 12.95607 32282 ft 426 kts 291°
2026-04-27 17:33 40.41223 12.91974 32768 ft 425 kts 291°
2026-04-27 17:33 40.42271 12.88357 33261 ft 422 kts 291°
2026-04-27 17:34 40.43296 12.84812 33717 ft 420 kts 291°
2026-04-27 17:34 40.44331 12.81229 34158 ft 419 kts 291°
2026-04-27 17:34 40.45362 12.77655 34569 ft 418 kts 291°
2026-04-27 17:34 40.46374 12.74138 34906 ft 416 kts 291°
2026-04-27 17:35 40.47395 12.70588 35220 ft 415 kts 291°
2026-04-27 17:35 40.48405 12.67067 35480 ft 416 kts 291°
2026-04-27 17:35 40.49430 12.63495 35708 ft 417 kts 291°
2026-04-27 17:35 40.50436 12.59980 35922 ft 417 kts 291°
2026-04-27 17:36 40.51465 12.56383 36124 ft 418 kts 291°
2026-04-27 17:36 40.52477 12.52842 36314 ft 419 kts 291°
2026-04-27 17:36 40.53506 12.49233 36519 ft 420 kts 291°
2026-04-27 17:36 40.54522 12.45666 36761 ft 421 kts 291°
2026-04-27 17:37 40.55544 12.42071 36987 ft 422 kts 291°
2026-04-27 17:37 40.56570 12.38461 37089 ft 423 kts 291°
2026-04-27 17:37 40.57592 12.34856 37090 ft 424 kts 291°
2026-04-27 17:38 40.59642 12.27615 37096 ft 424 kts 291°
2026-04-27 17:38 40.61689 12.20359 37092 ft 424 kts 291°
2026-04-27 17:39 40.63727 12.13119 37092 ft 424 kts 291°
2026-04-27 17:39 40.65757 12.05885 37090 ft 424 kts 291°
2026-04-27 17:40 40.67797 11.98597 37090 ft 424 kts 291°
2026-04-27 17:40 40.69817 11.91355 37096 ft 425 kts 291°
2026-04-27 17:41 40.71840 11.84085 37095 ft 424 kts 291°
2026-04-27 17:41 40.73851 11.76837 37099 ft 425 kts 291°
2026-04-27 17:42 40.75882 11.69491 37092 ft 425 kts 291°
2026-04-27 17:42 40.77890 11.62207 37092 ft 425 kts 291°
2026-04-27 17:43 40.79900 11.54894 37095 ft 425 kts 291°
2026-04-27 17:43 40.81808 11.47548 37088 ft 424 kts 287°
2026-04-27 17:43 40.82511 11.43848 36853 ft 420 kts 283°
2026-04-27 17:44 40.83026 11.40062 36282 ft 420 kts 279°
2026-04-27 17:44 40.83336 11.36254 35762 ft 420 kts 275°
2026-04-27 17:44 40.83447 11.32435 35272 ft 419 kts 271°
2026-04-27 17:44 40.83359 11.28593 34741 ft 419 kts 267°
2026-04-27 17:45 40.83158 11.24763 34067 ft 421 kts 266°
2026-04-27 17:45 40.82945 11.20921 33307 ft 423 kts 266°
2026-04-27 17:45 40.82730 11.17071 32510 ft 426 kts 266°
2026-04-27 17:45 40.82511 11.13178 31687 ft 428 kts 266°
2026-04-27 17:46 40.82291 11.09274 31051 ft 426 kts 266°
2026-04-27 17:46 40.82074 11.05435 30539 ft 421 kts 266°
2026-04-27 17:46 40.81858 11.01635 29986 ft 417 kts 266°
2026-04-27 17:46 40.81644 10.97867 29403 ft 414 kts 266°
2026-04-27 17:47 40.81429 10.94087 28815 ft 411 kts 266°
2026-04-27 17:47 40.81284 10.91572 28422 ft 409 kts 266°
2026-04-27 17:47 40.81000 10.86649 27657 ft 405 kts 266°
2026-04-27 17:47 40.80787 10.82985 27089 ft 401 kts 266°
2026-04-27 17:48 40.80575 10.79344 26514 ft 398 kts 266°
2026-04-27 17:48 40.80363 10.75734 25938 ft 395 kts 266°
2026-04-27 17:48 40.80154 10.72197 25396 ft 392 kts 266°
2026-04-27 17:48 40.79944 10.68655 24848 ft 389 kts 266°
2026-04-27 17:49 40.79736 10.65170 24303 ft 386 kts 266°
2026-04-27 17:49 40.79525 10.61679 23756 ft 384 kts 266°
2026-04-27 17:49 40.79274 10.58177 23224 ft 381 kts 265°
2026-04-27 17:49 40.79013 10.54764 22706 ft 378 kts 265°
2026-04-27 17:50 40.78745 10.51302 22184 ft 375 kts 265°
2026-04-27 17:50 40.78227 10.44561 21984 ft 371 kts 265°
2026-04-27 17:50 40.77969 10.41199 21697 ft 368 kts 265°
2026-04-27 17:51 40.77710 10.37840 21115 ft 368 kts 265°
2026-04-27 17:51 40.77456 10.34553 20576 ft 367 kts 264°
2026-04-27 17:51 40.77197 10.31205 20076 ft 365 kts 264°
2026-04-27 17:51 40.76939 10.27904 19602 ft 362 kts 264°
2026-04-27 17:52 40.76685 10.24639 19130 ft 360 kts 264°
2026-04-27 17:52 40.76432 10.21402 18662 ft 357 kts 264°
2026-04-27 17:52 40.76177 10.18155 18189 ft 355 kts 264°
2026-04-27 17:52 40.75923 10.14931 17732 ft 353 kts 264°
2026-04-27 17:53 40.75673 10.11754 17276 ft 351 kts 264°
2026-04-27 17:53 40.75419 10.08563 16830 ft 349 kts 264°
2026-04-27 17:53 40.75166 10.05385 16389 ft 346 kts 264°
2026-04-27 17:53 40.74919 10.02283 15953 ft 344 kts 264°
2026-04-27 17:54 40.74668 9.99150 15525 ft 342 kts 264°
2026-04-27 17:54 40.74421 9.96082 15100 ft 340 kts 264°
2026-04-27 17:54 40.74175 9.93028 14659 ft 337 kts 264°
2026-04-27 17:54 40.73933 9.90046 14239 ft 335 kts 264°
2026-04-27 17:55 40.73707 9.87262 13849 ft 333 kts 264°
2026-04-27 17:55 40.73489 9.84585 13458 ft 331 kts 264°
2026-04-27 17:55 40.73277 9.81991 13062 ft 329 kts 264°
2026-04-27 17:55 40.73063 9.79377 12685 ft 327 kts 264°
2026-04-27 17:56 40.72850 9.76770 12315 ft 325 kts 264°
2026-04-27 17:56 40.72639 9.74201 11925 ft 323 kts 264°
2026-04-27 17:56 40.72425 9.71618 11517 ft 321 kts 264°
2026-04-27 17:56 40.72214 9.69074 11123 ft 319 kts 264°
2026-04-27 17:57 40.72002 9.66514 10731 ft 317 kts 264°
2026-04-27 17:57 40.71798 9.64061 10511 ft 309 kts 264°
2026-04-27 17:57 40.71592 9.61591 10344 ft 300 kts 264°
2026-04-27 17:57 40.71392 9.59205 10177 ft 291 kts 264°
2026-04-27 17:58 40.71201 9.56929 9971 ft 285 kts 264°
2026-04-27 17:58 40.71012 9.54674 9666 ft 283 kts 264°
2026-04-27 17:58 40.70824 9.52446 9331 ft 282 kts 264°
2026-04-27 17:58 40.70631 9.50180 8982 ft 281 kts 264°
2026-04-27 17:59 40.70441 9.47949 8666 ft 280 kts 264°
2026-04-27 17:59 40.70253 9.45727 8319 ft 279 kts 264°
2026-04-27 17:59 40.70068 9.43534 7972 ft 280 kts 264°
2026-04-27 17:59 40.69762 9.41330 7712 ft 276 kts 252°
2026-04-27 18:00 40.69095 9.39345 7573 ft 267 kts 239°
2026-04-27 18:00 40.68207 9.37578 7436 ft 259 kts 235°
2026-04-27 18:00 40.67287 9.35892 7265 ft 253 kts 234°
2026-04-27 18:00 40.66401 9.34275 7141 ft 247 kts 233°
2026-04-27 18:01 40.65525 9.32659 6924 ft 244 kts 234°
2026-04-27 18:01 40.64656 9.31035 6661 ft 244 kts 234°
2026-04-27 18:01 40.63792 9.29407 6396 ft 244 kts 235°
2026-04-27 18:01 40.63130 9.27637 6105 ft 245 kts 259°
2026-04-27 18:02 40.63251 9.25718 5816 ft 245 kts 294°
2026-04-27 18:02 40.64147 9.24143 5554 ft 243 kts 322°
2026-04-27 18:02 40.65459 9.23253 5285 ft 240 kts 347°
2026-04-27 18:02 40.66925 9.23087 5032 ft 238 kts
2026-04-27 18:03 40.68402 9.23145 4784 ft 237 kts
2026-04-27 18:03 40.69855 9.23191 4539 ft 236 kts
2026-04-27 18:03 40.71320 9.23199 4287 ft 235 kts
2026-04-27 18:03 40.72773 9.23176 4033 ft 234 kts
2026-04-27 18:04 40.74186 9.23331 3823 ft 228 kts 20°
2026-04-27 18:04 40.75366 9.24286 3678 ft 220 kts 45°
2026-04-27 18:04 40.76239 9.25643 3455 ft 217 kts 54°
2026-04-27 18:04 40.77034 9.27109 3205 ft 216 kts 56°
2026-04-27 18:05 40.77782 9.28555 3016 ft 212 kts 56°
2026-04-27 18:05 40.78513 9.29978 2993 ft 200 kts 57°
2026-04-27 18:05 40.79192 9.31296 2983 ft 188 kts 57°
2026-04-27 18:05 40.79847 9.32563 2992 ft 187 kts 56°
2026-04-27 18:06 40.80506 9.33834 2997 ft 188 kts 56°
2026-04-27 18:06 40.81160 9.35092 2999 ft 188 kts 56°
2026-04-27 18:06 40.81825 9.36366 2939 ft 188 kts 56°
2026-04-27 18:06 40.82490 9.37640 2730 ft 187 kts 56°
2026-04-27 18:07 40.83156 9.38914 2472 ft 186 kts 56°
2026-04-27 18:07 40.83810 9.40169 2223 ft 185 kts 56°
2026-04-27 18:07 40.84473 9.41439 1998 ft 178 kts 56°
2026-04-27 18:07 40.85113 9.42664 1767 ft 170 kts 56°
2026-04-27 18:08 40.85714 9.43814 1520 ft 161 kts 56°
2026-04-27 18:08 40.86272 9.44882 1277 ft 152 kts 57°
2026-04-27 18:08 40.86793 9.45877 1061 ft 142 kts 57°
2026-04-27 18:08 40.87284 9.46812 863 ft 132 kts 57°
2026-04-27 18:09 40.87743 9.47687 691 ft 129 kts 58°
2026-04-27 18:09 40.88190 9.48560 508 ft 129 kts 58°
2026-04-27 18:09 40.88640 9.49421 330 ft 127 kts 57°
2026-04-27 18:09 40.89092 9.50281 167 ft 126 kts 57°
2026-04-27 18:10 40.89533 9.51133 51 ft 119 kts 58°
2026-04-27 18:10 40.89890 9.51804 50 ft 75 kts 53°
2026-04-27 18:10 40.90116 9.52239 50 ft 52 kts 53°
2026-04-27 18:10 40.90279 9.52585 50 ft 43 kts 47°
2026-04-27 18:11 40.90438 9.52654 50 ft 24 kts 304°
2026-04-27 18:11 40.90449 9.52479 50 ft 20 kts 270°
2026-04-27 18:11 40.90391 9.52376 50 ft 15 kts 233°
2026-04-27 18:11 40.90339 9.52269 50 ft 16 kts 238°
2026-04-27 18:12 40.90276 9.52155 50 ft 17 kts 219°
2026-04-27 18:12 40.90207 9.52041 50 ft 18 kts 237°
2026-04-27 18:12 40.90177 9.51896 50 ft 19 kts 275°
2026-04-27 18:12 40.90225 9.51765 50 ft 12 kts 261°
2026-04-27 18:13 40.90178 9.51744 50 ft 7 kts 135°
2026-04-27 18:13 40.90171 9.51774 50 ft 0 kts 82°